Tracking 33446 objects as of 10-Mar-2026
HD Live streaming from Space Station
objects crossing your sky now

STARLINK-35376

Track STARLINK-35376 now!
10-day predictions
STARLINK-35376 is classified as:


NORAD ID: 66018
Int'l Code: 2025-232P
Perigee: 481.5 km
Apogee: 483.3 km
Inclination: 53.2 °
Period: 94.1 minutes
Semi major axis: 6853 km
RCS: Unknown
Launch date: October 16, 2025
Source: United States (US)
Launch site: AIR FORCE EASTERN TEST RANGE (AFETR)
Your satellite tracking list
Your tracking list is empty




NASA's NSSDC Master Catalog

Two Line Element Set (TLE):
1 66018U 25232P   26068.50707881  .00029674  00000-0  10102-2 0  9997
2 66018  53.1587 105.0347 0001306  91.2420 268.8730 15.30193815 23409
Source of the keplerian elements: AFSPC